Norwegian Sun — C6RN3 — position and weather

sailwx.info

Track history (hours):
 
Tides and Currents Weather Stations Pressure Air Temp Water Temp Dewpoint Dewpoint Depression Visibility Wind Speed Wind Dir Waves Ship Positions

Norwegian Sun

Operator: Norwegian Cruise Line

Last reported at 2014-Jul-24 00:00 UTC. Time now 2014-Jul-25 18:25 UTC.
Position N 55°18' W 131°36'.

Type: Ship. MMSI: 311109000.

Wind from 140 at 4 knots

Waves 0.5 meters (2 feet), 8 second period

Barometer 1016.0 mb
Air temperature 20.0 ° C
Visibility: greater than 10.8 NM
Dewpoint 9.5 ° C
Water temperature 17.0 ° C

Date/timePositionNaut miles runAvg speedWind from/ knotsBaromVisibWave heightAir tempDewpointWater temp
2014-Jul-24 00:00N 55°18' W 131°36'27 2.1 140 / 41016.010.8 0.520.0 9.517.0
2014-Jul-23 11:29N 54°57' W 131°07'2412.4
2014-Jul-23 09:33N 54°34' W 131°18'1312.7
2014-Jul-23 08:33N 54°22' W 131°13'1312.5
2014-Jul-23 07:31N 54°09' W 131°10'20613.7
2014-Jul-22 16:29N 51°10' W 128°24'1616.9
2014-Jul-22 15:33N 51°03' W 128°02'1913.6
2014-Jul-22 14:10N 50°53' W 127°36'711.5
2014-Jul-22 13:33N 50°50' W 127°26'1211.8
2014-Jul-22 12:33N 50°45' W 127°09'1211.8
2014-Jul-22 11:33N 50°41' W 126°52'1511.3
2014-Jul-22 10:12N 50°30' W 126°34'5010.6
2014-Jul-22 05:30N 50°12' W 125°22'1212.8
2014-Jul-22 04:32N 50°01' W 125°13'1919.1
2014-Jul-22 03:33N 49°47' W 124°53'2120.7
2014-Jul-22 02:33N 49°33' W 124°30'2020.1
2014-Jul-22 01:33N 49°23' W 124°03'2121.0
2014-Jul-22 00:34N 49°19' W 123°31'1716.5
2014-Jul-21 23:33N 49°18' W 123°06'1 0.6
2014-Jul-21 22:32N 49°17' W 123°07'0 0.0
2014-Jul-21 21:31N 49°17' W 123°07'0 0.0
2014-Jul-21 20:33N 49°17' W 123°07'0 0.0
2014-Jul-21 20:12N 49°17' W 123°07'0 0.0
2014-Jul-21 19:33N 49°17' W 123°07'0 0.0
2014-Jul-21 18:32N 49°17' W 123°07'0 0.0
2014-Jul-21 17:33N 49°17' W 123°07'0 0.0
2014-Jul-21 16:32N 49°17' W 123°07'0 0.0
2014-Jul-21 15:33N 49°17' W 123°07'0 0.0
2014-Jul-21 14:31N 49°17' W 123°07'1 1.5
2014-Jul-21 13:33N 49°19' W 123°08'1514.8
2014-Jul-21 12:34N 49°20' W 123°30'1615.7
2014-Jul-21 11:33N 49°22' W 123°54'1615.7
2014-Jul-21 10:34N 49°25' W 124°18'1515.2
2014-Jul-21 09:33N 49°35' W 124°36'1615.7
2014-Jul-21 08:32N 49°46' W 124°53'1515.1
2014-Jul-21 07:33N 49°57' W 125°09'5913.8
2014-Jul-21 03:18N 50°30' W 126°25'1114.0
2014-Jul-21 02:30N 50°34' W 126°42'1516.4
2014-Jul-21 01:33N 50°43' W 127°01'1716.6
2014-Jul-21 00:33N 50°50' W 127°26'1616.2
2014-Jul-20 23:33N 50°59' W 127°47'1212.5
2014-Jul-20 22:33N 51°04' W 128°05'1513.2
2014-Jul-20 21:24N 51°10' W 128°27'19816.6
2014-Jul-20 09:27N 54°02' W 131°08'1617.2
2014-Jul-20 08:33N 54°18' W 131°12'1817.0
2014-Jul-20 07:31N 54°35' W 131°19'137 7.0
2014-Jul-19 12:00N 56°06' W 134°18'126 4.7 150 / 41006.0 0.3 2.011.0 9.212.0
2014-Jul-18 09:00N 58°12' W 134°36'9 0.4 110 / 101012.0 0.511.0 9.211.0
2014-Jul-17 10:00N 58°18' W 134°48'12 6.2 130 / 71020.0 5.4 0.513.011.212.0
2014-Jul-17 08:00N 58°06' W 134°54'17 2.5 270 / 101022.0 0.513.0 9.412.0
2014-Jul-17 01:30N 58°10' W 135°24'0 0.0
2014-Jul-16 15:32N 58°10' W 135°25'1313.6
2014-Jul-16 14:33N 58°18' W 135°45'1211.9
2014-Jul-16 13:33N 58°19' W 136°08'  
2014-Jul-14 05:00N 59°54' W 145°36'   270 / 151025.0 13.0
Track history (hours):
 
Tides and Currents Weather Stations Pressure Air Temp Water Temp Dewpoint Dewpoint Depression Visibility Wind Speed Wind Dir Waves Ship Positions

Norwegian Sun

Operator: Norwegian Cruise Line

Last reported at 2014-Jul-24 00:00 UTC. Time now 2014-Jul-25 18:25 UTC.
Position N 55°18' W 131°36'.

Type: Ship. MMSI: 311109000.

Wind from 140 at 4 knots

Waves 0.5 meters (2 feet), 8 second period

Barometer 1016.0 mb
Air temperature 20.0 ° C
Visibility: greater than 10.8 NM
Dewpoint 9.5 ° C
Water temperature 17.0 ° C

Date/timePositionNaut miles runAvg speedWind from/ knotsBaromVisibWave heightAir tempDewpointWater temp
2014-Jul-24 00:00N 55°18' W 131°36'27 2.1 140 / 41016.010.8 0.520.0 9.517.0
2014-Jul-23 11:29N 54°57' W 131°07'2412.4
2014-Jul-23 09:33N 54°34' W 131°18'1312.7
2014-Jul-23 08:33N 54°22' W 131°13'1312.5
2014-Jul-23 07:31N 54°09' W 131°10'20613.7
2014-Jul-22 16:29N 51°10' W 128°24'1616.9
2014-Jul-22 15:33N 51°03' W 128°02'1913.6
2014-Jul-22 14:10N 50°53' W 127°36'711.5
2014-Jul-22 13:33N 50°50' W 127°26'1211.8
2014-Jul-22 12:33N 50°45' W 127°09'1211.8
2014-Jul-22 11:33N 50°41' W 126°52'1511.3
2014-Jul-22 10:12N 50°30' W 126°34'5010.6
2014-Jul-22 05:30N 50°12' W 125°22'1212.8
2014-Jul-22 04:32N 50°01' W 125°13'1919.1
2014-Jul-22 03:33N 49°47' W 124°53'2120.7
2014-Jul-22 02:33N 49°33' W 124°30'2020.1
2014-Jul-22 01:33N 49°23' W 124°03'2121.0
2014-Jul-22 00:34N 49°19' W 123°31'1716.5
2014-Jul-21 23:33N 49°18' W 123°06'1 0.6
2014-Jul-21 22:32N 49°17' W 123°07'0 0.0
2014-Jul-21 21:31N 49°17' W 123°07'0 0.0
2014-Jul-21 20:33N 49°17' W 123°07'0 0.0
2014-Jul-21 20:12N 49°17' W 123°07'0 0.0
2014-Jul-21 19:33N 49°17' W 123°07'0 0.0
2014-Jul-21 18:32N 49°17' W 123°07'0 0.0
2014-Jul-21 17:33N 49°17' W 123°07'0 0.0
2014-Jul-21 16:32N 49°17' W 123°07'0 0.0
2014-Jul-21 15:33N 49°17' W 123°07'0 0.0
2014-Jul-21 14:31N 49°17' W 123°07'1 1.5
2014-Jul-21 13:33N 49°19' W 123°08'1514.8
2014-Jul-21 12:34N 49°20' W 123°30'1615.7
2014-Jul-21 11:33N 49°22' W 123°54'1615.7
2014-Jul-21 10:34N 49°25' W 124°18'1515.2
2014-Jul-21 09:33N 49°35' W 124°36'1615.7
2014-Jul-21 08:32N 49°46' W 124°53'1515.1
2014-Jul-21 07:33N 49°57' W 125°09'5913.8
2014-Jul-21 03:18N 50°30' W 126°25'1114.0
2014-Jul-21 02:30N 50°34' W 126°42'1516.4
2014-Jul-21 01:33N 50°43' W 127°01'1716.6
2014-Jul-21 00:33N 50°50' W 127°26'1616.2
2014-Jul-20 23:33N 50°59' W 127°47'1212.5
2014-Jul-20 22:33N 51°04' W 128°05'1513.2
2014-Jul-20 21:24N 51°10' W 128°27'19816.6
2014-Jul-20 09:27N 54°02' W 131°08'1617.2
2014-Jul-20 08:33N 54°18' W 131°12'1817.0
2014-Jul-20 07:31N 54°35' W 131°19'137 7.0
2014-Jul-19 12:00N 56°06' W 134°18'126 4.7 150 / 41006.0 0.3 2.011.0 9.212.0
2014-Jul-18 09:00N 58°12' W 134°36'9 0.4 110 / 101012.0 0.511.0 9.211.0
2014-Jul-17 10:00N 58°18' W 134°48'12 6.2 130 / 71020.0 5.4 0.513.011.212.0
2014-Jul-17 08:00N 58°06' W 134°54'17 2.5 270 / 101022.0 0.513.0 9.412.0
2014-Jul-17 01:30N 58°10' W 135°24'0 0.0
2014-Jul-16 15:32N 58°10' W 135°25'1313.6
2014-Jul-16 14:33N 58°18' W 135°45'1211.9
2014-Jul-16 13:33N 58°19' W 136°08'  
2014-Jul-14 05:00N 59°54' W 145°36'   270 / 151025.0 13.0

Dump ship's entire track history